Marrakech, Morocco

1:41 PM WET on January 20, 2018 (GMT +0000)
Marrakech

Weather History for GMMX - March, 2014

Change the Weather History Date:

Thursday, March 27, 2014

  Actual Average Record
Temperature  
Mean Temperature 58 °F -  
Max Temperature 70 °F 75 °F 93 °F (2012)
Min Temperature 46 °F 52 °F 46 °F (1999)
Degree Days  
Heating Degree Days 7    
Growing Degree Days 8 (Base 50)    
Moisture  
Dew Point 41 °F    
Average Humidity 54    
Maximum Humidity 82    
Minimum Humidity 24    
Precipitation  
Precipitation 0.00 in 0.05 in - ()
Sea Level Pressure  
Sea Level Pressure 29.95 in    
Wind  
Wind Speed 8 mph ()    
Max Wind Speed 15 mph    
Max Gust Speed -    
Visibility 5.7 miles    
Events      
Averages and records for this station are not official NWS values.
T = Trace of Precipitation, MM = Missing Value Source: Averaged Metar Reports

Daily Weather History Graph

Daily Weather History Graph

Search for Another Location

Airport or City:

Trip Planner

Search our weather history database for the weather conditions in past years. The results will help you decide how hot, cold, wet, or windy it might be!

Date:

Astronomy

Mar. 27, 2014 Rise Set
Actual Time 6:27 AM WET 6:48 PM WET
Civil Twilight 6:02 AM WET 7:12 PM WET
Nautical Twilight 5:34 AM WET 7:41 PM WET
Astronomical Twilight 5:05 AM WET 8:10 PM WET
Moon 3:56 AM WET (3/27) 3:31 PM WET (3/27)
Length of Visible Light 13h 09m
Length of Day
12h 20m
Waning Crescent, 14% of the Moon is Illuminated
Mar 27
Waning Crescent
Mar 30
New
Apr 7
First Quarter
Apr 15
Full
Apr 22
Last Quarter

Hourly Weather History & Observations

Time (WET) Temp. Windchill Dew Point Humidity Pressure Visibility Wind Dir Wind Speed Gust Speed Precip Events Conditions
12:00 AM 53 °F - 41 °F 53% 30.18 in 6 mi NE 11.5 mph - -   Clear
12:00 AM 53.6 °F - 41.0 °F 62% 30.15 in - NE 11.5 mph - N/A   Clear
3:00 AM 50 °F - 41 °F 62% 30.14 in 6 mi East 8.1 mph - -  
4:00 AM 51.8 °F - 41.0 °F 67% 30.09 in 6.2 mi ENE 9.2 mph - N/A   Scattered Clouds
4:30 AM 50.0 °F - 39.2 °F 66% 30.09 in 6.2 mi ENE 8.1 mph - N/A   Scattered Clouds
5:00 AM 50.0 °F - 39.2 °F 66% 30.06 in 6.2 mi ENE 8.1 mph - N/A   Scattered Clouds
5:30 AM 48.2 °F - 39.2 °F 71% 30.06 in 6.2 mi East 6.9 mph - N/A   Partly Cloudy
6:00 AM 48 °F - 40 °F 65% 30.08 in 6 mi East 8.1 mph - -   Scattered Clouds
6:00 AM 48.2 °F - 39.2 °F 71% 30.06 in 6.2 mi East 8.1 mph - N/A   Partly Cloudy
6:30 AM 48.2 °F - 39.2 °F 71% 30.04 in 6.2 mi East 8.1 mph - N/A   Partly Cloudy
7:00 AM 46.4 °F 43.5 °F 41.0 °F 81% 30.04 in - East 5.8 mph - N/A   Clear
7:30 AM 48.2 °F - 41.0 °F 76% 30.01 in 6.2 mi East 8.1 mph - N/A   Partly Cloudy
8:00 AM 51.8 °F - 41.0 °F 67% 30.01 in - ENE 6.9 mph - N/A   Clear
8:30 AM 51.8 °F - 39.2 °F 62% 30.04 in - NE 8.1 mph - N/A   Clear
9:00 AM 54 °F - 41 °F 50% 30.05 in 6 mi ENE 8.1 mph - -  
9:00 AM 53.6 °F - 41.0 °F 62% 30.04 in - NE 8.1 mph - N/A   Clear
9:30 AM 55.4 °F - 41.0 °F 58% 30.04 in - East 5.8 mph - N/A   Clear
10:00 AM 57.2 °F - 41.0 °F 55% 30.04 in - Variable 4.6 mph - N/A   Clear
10:30 AM 59.0 °F - 41.0 °F 51% 30.04 in - Variable 4.6 mph - N/A   Clear
11:00 AM 60.8 °F - 41.0 °F 48% 30.04 in - NE 5.8 mph - N/A   Clear
11:30 AM 60.8 °F - 41.0 °F 48% 30.01 in - Variable 4.6 mph - N/A   Clear
11:45 AM 62 °F - 42 °F 36% 29.98 in 6 mi North 4.6 mph - -  
12:00 PM 60.8 °F - 41.0 °F 48% 30.01 in - North 4.6 mph - N/A   Clear
12:30 PM 64.4 °F - 41.0 °F 42% 29.98 in - NE 3.5 mph - N/A   Clear
1:00 PM 64.4 °F - 42.8 °F 45% 29.95 in 6.2 mi NW 5.8 mph - N/A   Partly Cloudy
1:30 PM 66.2 °F - 41.0 °F 40% 29.92 in - Variable 4.6 mph - N/A   Clear
2:00 PM 68.0 °F - 42.8 °F 40% 29.92 in - WNW 3.5 mph - N/A   Clear
2:30 PM 68.0 °F - 41.0 °F 37% 29.89 in 5.6 mi WNW 6.9 mph - N/A   Partly Cloudy
3:00 PM 69 °F - 42 °F 26% 29.84 in 5 mi NNW 5.8 mph - -   Scattered Clouds
3:00 PM 69.8 °F - 41.0 °F 35% 29.89 in 5.0 mi WNW 6.9 mph - N/A   Partly Cloudy
3:30 PM 68.0 °F - 39.2 °F 35% 29.86 in 5.0 mi Variable 9.2 mph - N/A   Partly Cloudy
4:00 PM 69.8 °F - 41.0 °F 35% 29.86 in 4.3 mi Variable 6.9 mph - N/A   Partly Cloudy
4:30 PM 69.8 °F - 39.2 °F 33% 29.86 in 4.3 mi West 6.9 mph - N/A   Partly Cloudy
5:00 PM 69.8 °F - 39.2 °F 33% 29.86 in 3.7 mi West 8.1 mph - N/A   Partly Cloudy
5:30 PM 68.0 °F - 39.2 °F 35% 29.86 in 4.3 mi West 10.4 mph - N/A   Partly Cloudy
6:00 PM 68 °F - 40 °F 24% 29.81 in 4 mi West 8.1 mph - -   Scattered Clouds
6:00 PM 68.0 °F - 39.2 °F 35% 29.86 in 4.3 mi West 8.1 mph - N/A   Partly Cloudy
6:30 PM 66.2 °F - 39.2 °F 37% 29.83 in 6.2 mi West 8.1 mph - N/A   Partly Cloudy
7:00 PM 64.4 °F - 39.2 °F 40% 29.83 in 6.2 mi West 8.1 mph - N/A   Scattered Clouds
7:30 PM 62.6 °F - 39.2 °F 42% 29.83 in 6.2 mi WSW 4.6 mph - N/A   Scattered Clouds
8:00 PM 60.8 °F - 42.8 °F 52% 29.83 in 6.2 mi West 9.2 mph - N/A   Scattered Clouds
8:30 PM 59.0 °F - 44.6 °F 59% 29.86 in 6.2 mi West 12.7 mph - N/A   Scattered Clouds
9:00 PM 57 °F - 44 °F 52% 29.86 in 6 mi West 13.8 mph - -   Partly Cloudy
9:00 PM 57.2 °F - 44.6 °F 63% 29.86 in 6.2 mi West 15.0 mph - N/A   Scattered Clouds
9:30 PM 55.4 °F - 44.6 °F 67% 29.86 in 6.2 mi West 11.5 mph - N/A   Scattered Clouds
10:00 PM 53.6 °F - 44.6 °F 72% 29.86 in - West 10.4 mph - N/A   Clear
10:30 PM 51.8 °F - 44.6 °F 76% 29.86 in - WSW 8.1 mph - N/A   Clear
11:00 PM 51.8 °F - 44.6 °F 76% 29.86 in - West 10.4 mph - N/A   Clear
11:01 PM 50.0 °F - 44.6 °F 82% 29.86 in 6.2 mi West 10.4 mph - N/A   Mostly Cloudy
11:30 PM 51.8 °F - 44.6 °F 76% 29.86 in 6.2 mi West 10.4 mph - N/A   Mostly Cloudy